GW6161 Weather Reports


Display with metric or nautical units.
time (UTC)temp
F
wind
direction
speed
MPH
gust
MPH
rain 1hr
in
rain 24hr
in
rain mn
in
humidity
%
barometer
mb
20260510192406 85 302 0.0 2.0 0.00 0.00 0.00 43 1000.7
20260510191404 84 263 2.0 3.0 0.00 0.00 0.00 41 1000.7
20260510190359 84 294 2.0 2.0 0.00 0.00 0.00 43 1000.6
20260510185358 83 274 2.0 2.0 0.00 0.00 0.00 41 1001.0
20260510184358 83 256 2.0 3.0 0.00 0.00 0.00 38 1001.2
20260510183354 82 0 0.0 3.0 0.00 0.00 0.00 43 1001.0
20260510182352 83 313 2.0 3.0 0.00 0.00 0.00 42 1001.2
20260510181351 83 259 2.0 3.0 0.00 0.00 0.00 39 1001.2
20260510180350 82 311 1.0 2.0 0.00 0.00 0.00 45 1001.2
20260510175348 80 261 2.0 4.0 0.00 0.00 0.00 49 1001.4
20260510174348 80 302 1.0 2.0 0.00 0.00 0.00 51 1001.6
20260510173346 79 269 4.0 4.0 0.00 0.00 0.00 48 1001.6
20260510172344 78 262 3.0 6.0 0.00 0.00 0.00 56 1001.6
20260510171344 80 263 2.0 3.0 0.00 0.00 0.00 57 1001.6
20260510170343 78 241 1.0 4.0 0.00 0.00 0.00 56 1001.6
20260510165341 78 266 3.0 4.0 0.00 0.00 0.00 59 1001.7
20260510164335 78 313 2.0 3.0 0.00 0.00 0.00 65 1002.0
20260510163331 78 243 0.0 2.0 0.00 0.00 0.00 63 1002.0
20260510162329 76 321 1.0 2.0 0.00 0.00 0.00 73 1002.1
20260510161326 75 311 1.0 2.0 0.00 0.00 0.00 76 1002.1
20260510160326 73 271 1.0 2.0 0.00 0.00 0.00 76 1001.8
20260510155323 76 267 2.0 3.0 0.00 0.00 0.00 73 1001.9
20260510154321 73 292 2.0 2.0 0.00 0.00 0.00 77 1001.9
20260510153318 71 37 0.0 1.0 0.00 0.00 0.00 84 1001.9
20260510152317 70 314 0.0 2.0 0.00 0.00 0.00 85 1001.8
20260510151318 70 261 4.0 4.0 0.00 0.00 0.00 85 1001.8
20260510150315 68 273 3.0 3.0 0.00 0.00 0.00 89 1001.6
20260510145314 67 276 2.0 3.0 0.00 0.00 0.00 91 1001.8
20260510144313 67 269 0.0 4.0 0.00 0.00 0.00 92 1001.9
20260510143309 67 264 2.0 4.0 0.00 0.00 0.00 92 1001.8
20260510142309 66 345 0.0 2.0 0.00 0.00 0.00 94 1001.9
20260510141303 66 310 0.0 2.0 0.00 0.00 0.00 95 1001.8
20260510140301 66 273 2.0 3.0 0.00 0.00 0.00 97 1001.9
20260510135257 65 9 0.0 1.0 0.00 0.00 0.00 99 1001.8
20260510134252 64 269 1.0 3.0 0.00 0.00 0.00 99 1001.7
20260510133249 64 271 2.0 3.0 0.00 0.00 0.00 99 1001.5
20260510132249 64 267 2.0 2.0 0.00 0.00 0.00 99 1001.3
20260510131244 64 293 1.0 2.0 0.00 0.00 0.00 99 1001.4
20260510130243 63 262 2.0 3.0 0.00 0.00 0.00 99 1001.4
20260510125241 63 335 0.0 1.0 0.00 0.00 0.00 99 1001.2
20260510124236 63 271 2.0 2.0 0.00 0.00 0.00 99 1001.1
20260510123233 63 269 0.0 2.0 0.00 0.00 0.00 99 1000.8
20260510122232 62 303 0.0 0.0 0.00 0.00 0.00 99 1000.7
20260510121232 62 18 0.0 2.0 0.00 0.00 0.00 99 1000.9
20260510120231 62 50 0.0 2.0 0.00 0.00 0.00 99 1000.7
20260510115231 62 281 2.0 3.0 0.00 0.00 0.00 99 1000.6
20260510114230 62 279 0.0 1.0 0.00 0.00 0.00 99 1000.3
20260510113228 62 1 0.0 1.0 0.00 0.00 0.00 99 1000.1
20260510112227 62 103 0.0 1.0 0.00 0.00 0.00 99 1000.0
20260510111226 62 77 0.0 1.0 0.00 0.00 0.00 99 1000.0
20260510110223 62 349 1.0 2.0 0.00 0.00 0.00 99 999.8
20260510105223 62 76 0.0 2.0 0.00 0.00 0.00 99 999.6
20260510104223 62 278 0.0 2.0 0.00 0.00 0.00 99 999.5
20260510103223 62 348 1.0 2.0 0.00 0.00 0.00 99 999.2
20260510102218 62 318 0.0 1.0 0.00 0.00 0.00 99 998.8
20260510101214 62 304 0.0 0.0 0.00 0.00 0.00 99 999.0
20260510100214 62 44 0.0 2.0 0.00 0.00 0.00 99 999.2
20260510095210 62 310 0.0 1.0 0.00 0.00 0.00 99 998.9
20260510094205 62 310 0.0 2.0 0.00 0.00 0.00 99 998.9
20260510093204 62 44 0.0 0.0 0.00 0.00 0.00 99 998.7
20260510092202 62 37 0.0 0.0 0.00 0.00 0.00 99 998.8
20260510091200 62 296 0.0 0.0 0.00 0.00 0.00 99 999.0
20260510090159 62 269 0.0 1.0 0.00 0.00 0.00 99 998.9
20260510085155 61 25 0.0 1.0 0.00 0.00 0.00 98 998.6
20260510084154 61 309 0.0 0.0 0.00 0.00 0.00 98 998.2
20260510083154 60 29 0.0 1.0 0.00 0.00 0.00 98 998.3
20260510082152 60 37 0.0 1.0 0.00 0.00 0.00 98 998.3
20260510081149 60 304 0.0 2.0 0.00 0.00 0.00 98 998.3
20260510080145 60 66 0.0 0.0 0.00 0.00 0.00 97 997.9
20260510075145 60 66 0.0 1.0 0.00 0.00 0.00 96 997.9
20260510074144 60 326 0.0 0.0 0.00 0.00 0.00 97 998.0
20260510073143 60 26 0.0 1.0 0.00 0.00 0.00 97 997.8
20260510072141 61 66 0.0 1.0 0.00 0.00 0.00 97 997.8
20260510071141 62 32 0.0 0.0 0.00 0.00 0.00 97 997.9
20260510070136 62 66 0.0 1.0 0.00 0.00 0.00 97 997.6
20260510065133 62 34 0.0 2.0 0.00 0.00 0.00 97 997.6
20260510064132 62 47 1.0 1.0 0.00 0.00 0.00 97 997.8
20260510063132 61 58 0.0 1.0 0.00 0.00 0.00 96 997.9
20260510062130 62 37 0.0 0.0 0.00 0.00 0.00 96 998.0
20260510061129 62 39 0.0 1.0 0.00 0.00 0.00 95 997.9
20260510060127 62 55 0.0 0.0 0.00 0.00 0.00 95 997.8
20260510055122 62 31 0.0 1.0 0.00 0.00 0.00 95 997.8
20260510054118 62 50 0.0 1.0 0.00 0.00 0.00 95 998.0
20260510053115 62 37 0.0 0.0 0.00 0.00 0.00 94 997.9
20260510052113 63 44 0.0 0.0 0.00 0.00 0.00 94 998.0
20260510051112 63 32 0.0 0.0 0.00 0.00 0.00 94 998.1
20260510050112 63 50 0.0 0.0 0.00 0.00 0.00 93 998.1
20260510045110 63 38 0.0 1.0 0.00 0.00 0.00 93 998.0
20260510044110 63 56 1.0 2.0 0.00 0.00 0.00 93 998.0
20260510043108 63 40 0.0 1.0 0.00 0.00 0.00 93 998.1
20260510042108 64 39 0.0 1.0 0.00 0.00 0.00 93 998.1
20260510041108 64 47 1.0 2.0 0.00 0.00 0.00 93 998.3
20260510040107 64 69 0.0 2.0 0.00 0.00 0.00 93 998.2
20260510035103 64 37 0.0 2.0 0.00 0.00 0.00 93 998.2
20260510034058 64 49 0.0 2.0 0.00 0.00 0.00 93 998.2
20260510033058 64 54 0.0 2.0 0.00 0.00 0.00 94 998.3
20260510032055 64 50 0.0 2.0 0.00 0.00 0.00 94 998.2
20260510031052 64 89 0.0 1.0 0.00 0.00 0.00 94 998.1
20260510030051 64 61 1.0 2.0 0.00 0.00 0.00 93 998.0
20260510025051 64 55 0.0 2.0 0.00 0.00 0.00 93 998.0
20260510024050 64 54 1.0 1.0 0.00 0.00 0.00 92 998.0
20260510023050 65 44 0.0 1.0 0.00 0.00 0.00 91 997.6
20260510022049 65 34 0.0 1.0 0.00 0.00 0.00 91 997.6
20260510021044 65 32 0.0 1.0 0.00 0.00 0.00 90 997.5
20260510020040 66 22 0.0 1.0 0.00 0.00 0.00 89 997.2
20260510015037 66 25 0.0 0.0 0.00 0.00 0.00 89 997.0
20260510014037 66 49 0.0 0.0 0.00 0.00 0.00 88 996.9
20260510013033 67 50 0.0 0.0 0.00 0.00 0.00 87 996.5
20260510012030 67 37 0.0 1.0 0.00 0.00 0.00 86 996.5
20260510011026 67 31 0.0 1.0 0.00 0.00 0.00 85 996.2
20260510010026 68 44 0.0 1.0 0.00 0.00 0.00 85 996.3
20260510005025 68 44 0.0 0.0 0.00 0.00 0.00 84 996.0
20260510004020 68 0 0.0 0.0 0.00 0.00 0.00 84 996.0
20260510003018 69 345 0.0 1.0 0.00 0.00 0.00 83 995.8
20260510002017 69 326 0.0 0.0 0.00 0.00 0.00 82 995.8
20260510001012 69 6 0.0 1.0 0.00 0.00 0.00 81 995.6
20260510000009 69 37 0.0 0.0 0.00 0.00 0.00 82 995.6
20260509235009 69 38 0.0 0.0 0.00 0.00 0.00 82 995.6
20260509234003 70 22 0.0 1.0 0.00 0.00 0.00 82 995.5
20260509233002 70 44 0.0 0.0 0.00 0.00 0.00 81 995.3
20260509232002 71 34 0.0 0.0 0.00 0.00 0.00 82 995.3
20260509230956 71 346 0.0 1.0 0.00 0.00 0.00 81 995.6
20260509225955 71 15 0.0 0.0 0.00 0.00 0.00 80 995.5
20260509224953 71 32 0.0 1.0 0.00 0.00 0.00 80 995.5
20260509223952 71 46 0.0 1.0 0.00 0.00 0.00 80 995.3
20260509222952 72 315 0.0 0.0 0.00 0.00 0.00 79 995.1
20260509221949 72 37 0.0 1.0 0.00 0.00 0.00 78 995.4
20260509220947 73 297 0.0 0.0 0.00 0.00 0.00 78 994.7
20260509215945 74 41 0.0 0.0 0.00 0.00 0.00 76 994.8
20260509214944 75 308 1.0 2.0 0.00 0.00 0.00 69 994.9
20260509213943 76 75 0.0 1.0 0.00 0.00 0.00 68 994.9
20260509212942 76 268 2.0 2.0 0.00 0.00 0.00 66 994.8
20260509211941 76 269 0.0 4.0 0.00 0.00 0.00 64 994.8
20260509210939 76 265 2.0 4.0 0.00 0.00 0.00 62 994.9
20260509205938 76 312 0.0 0.0 0.00 0.00 0.00 67 994.9
20260509204934 75 287 1.0 2.0 0.00 0.00 0.00 65 995.0
20260509203934 76 259 0.0 3.0 0.00 0.00 0.00 63 995.2
20260509202933 75 311 0.0 1.0 0.00 0.00 0.00 65 995.0
20260509201930 75 277 1.0 4.0 0.00 0.00 0.00 67 995.4
20260509200928 76 260 2.0 5.0 0.00 0.00 0.00 62 995.3
20260509195925 75 267 3.0 5.0 0.00 0.00 0.00 64 995.5
20260509194920 75 272 3.0 5.0 0.00 0.00 0.00 65 995.4
20260509193919 75 272 2.0 4.0 0.00 0.00 0.00 68 995.5
20260509192915 75 289 0.0 3.0 0.00 0.00 0.00 67 995.3